Probability
0 0 0 0 0 0 0 0 0 0 0 0 0 0 0 0 0 0 0 0 0 0 0 0 0 0 0 0 0 0 0 0 0 0 0 0 0 0 0 0 0 0 0 0
0 0 0 0 0 0 0 0 0 0 0 0 0 0 0 0 0 0 0 0 0 0 0 0 0 0 0 0 0 0 0 0 0 0 0 0 0 0 0 0 0 0 0 0
0 0 0 0 0 0 0 0 0 0 0 0 0 0 0 0 0 0 0 0 0 0 0 0 0 0 0 0 0 0 0 0 0 0 0 0 0 0 0 0 0 0 0 0
0 0 0 0 0 0 0 0 0 0 0 0 0 0 0 0 0 0 0 0 0 0 0 0 0 0 0 0 0 0 0 0 0 0 0 0 0 0 0 0 0 0 0 0
0 0 0 0 0 0 0 0 0 0 0 0 0 0 0 0 0 0 0 0 0 0 0 0 0 0 0 0 0 0 0 0 0 0 0 0 0 0 0 0 0 0 0 0
0 0 0 0 0 0 0 0 0 0 0 0 0 0 0 0 0 0 0 0 0 0 0 0 0 0 0 0 0 0 0 0 0 0 0 0 0 0 0 0 0 0 0 0
0 0 0 0 0 0 0 0 0 0 0 0 0 0 0 0 0 0 0 0 0 0 0 0 0 0 0 0 0 0 0 0 0 0 0 0 0 0 0 0 0 0 0 0
0 0 0 0 0 0 0 0 0 0 0 0 0 0 0 0 0 0 0 0 0 0 0 0 0 0 0 0 0 0 0 0 0 0 0 0 0 0 0 0 0 0 0 0
0 0 0 0 0 0 0 0 0 0 0 0 0 0 0 0 0 0 0 0 0 0 0 0 0 0 0 0 0 0 0 0 0 0 0 0 0 0 0 0 0 0 0 0
0 0 0 0 0 0 0 0 0 0 0 0 0 0 0 0 0 0 0 0 0 0 0 0 0 0 0 0 0 0 0 0 0 0 0 0 0 0 0 0 0 0 0 0
0 0 0 0 0 0 0 0 0 0 0 0 0 0 0 0 0 0 0 0 0 0 0 0 0 0 0 0 0 0 0 0 0 0 0 0 0 0 0 0 0 0 0 0
0 0 0 0 0 0 0 0 0 0 0 0 0 0 0 0 0 0 0 0 0 0 0 0 0 0 0 0 0 0 0 0 0 0 0 0 0 0 0 0 0 0 0 0
0 0 0 0 0 0 0 0 0 0 0 0 0 0 0 0 0 0 0 0 0 0 0 0 0 0 0 0 0 0 0 0 0 0 0 0 0 0 0 0 0 0 0 0
0 0 0 0 0 0 0 0 0 0 0 0 0 0 0 0 0 0 0 0 0 0 0 0 0 0 0 0 0 0 0 0 0 0 0 0 0 0 0 0 0 0 0 0
0 0 0 0 0 0 0 0 0 0 0 0 0 0 0 0 0 0 0 0 0 0 0 0 0 0 0 0 0 0 0 0 0 0 0 0 0 0 0 0 0 0 0 0
0 0 0 0 0 0 0 0 0 0 0 0 0 0 0 0 0 0 0 0 0 0 0 0 0 0 0 0 0 0 0 0 0 0 0 0 0 0 0 0 0 0 0 0
0 0 0 0 0 0 0 0 0 0 0 0 0 0 0 0 0 0 0 0 0 0 0 0 0 0 0 0 0 0 0 0 0 0 0 0 0 0 0 0 0 0 0 0
0 0 0 0 0 0 0 0 0 0 0 0 0 0 0 0 0 0 0 0 0 0 0 0 0 0 0 0 0 0 0 0 0 0 0 0 0 0 0 0 0 0 0 0
0 0 0 0 0 0 0 0 0 0 0 0 0 0 0 0 0 0 0 0 0 0 0 0 0 0 0 0 0 0 0 0 0 0 0 0 0 0 0 0 0 0 0 0
0 0 0 0 0 0 0 0 0 0 0 0 0 0 0 0 0 0 0 0 0 0 0 0 0 0 0 0 0 0 0 0 0 0 0 0 0 0 0 0 0 0 0 0
0 0 0 0 0 0 0 0 0 0 0 0 0 0 0 0 0 0 0 0 0 0 0 0 0 0 0 0 0 0 0 0 0 0 0 0 0 0 0 0 0 0 0 0
0 0 0 0 0 0 0 0 0 0 0 0 0 0 0 0 0 0 0 0 0 0 0 0 0 0 0 0 0 0 0 0 0 0 0 0 0 0 0 0 0 0 0 0
0 0 0 0 0 0 0 0 0 0 0 0 0 0 0 0 0 0 0 0 0 0 0 0 0 0 0 0 0 0 0 0 0 0 0 0 0 0 0 0 0 0 0 0
0 0 0 0 0 0 0 0 0 0 0 0 0 0 0 0 0 0 0 0 0 0 0 0 0 0 0 0 0 0 0 0 0 0 0 0 0 0 0 0 0 0 0 0
0 0 0 0 0 0 0 0 0 0 0 0 0 0 0 0 0 0 0 0 0 0 0 0 0 0 0 0 0 0 0 0 0 0 0 0 0 0 0 0 0 0 0 0
0 0 0 0 0 0 0 0 0 0 0 0 0 0 0 0 0 0 0 0 0 0 0 0 0 0 0 0 0 0 0 0 0 0 0 0 0 0 0 0 0 0 0 0
0 0 0 0 0 0 0 0 0 0 0 0 0 0 0 0 0 0 0 0 0 0 0 0 0 0 0 0 0 0 0 0 0 0 0 0 0 0 0 0 0 0 0 0
Wind_Speed
2 1 4 3 3 3 3 3 4 6 6 6 4 6 8 8 9 9 10 10 10 10 9 9 9 9 9 11 11 11 11 12 13 14 13 13 12 11 10 10 11 10 9 9
2 3 5 4 2 1 0 1 3 4 6 5 5 5 7 9 10 9 10 10 10 10 10 10 10 10 10 10 11 10 11 13 13 13 13 13 12 11 10 10 9 9 9 9
2 2 1 2 3 2 3 4 4 6 7 6 8 8 8 9 9 10 11 11 11 11 11 11 11 11 11 11 11 11 12 13 13 12 13 12 13 12 10 9 9 9 9 9
2 2 3 6 3 3 4 5 6 6 7 8 10 9 9 9 8 9 10 10 10 10 11 11 11 12 12 12 12 13 13 13 13 12 13 12 11 11 10 8 7 8 9 9
3 1 4 3 3 3 3 7 6 6 8 8 7 7 6 6 5 8 9 10 11 12 13 11 12 12 12 13 13 13 14 14 13 13 13 13 12 11 10 8 7 7 7 8
4 2 5 6 2 1 2 6 5 5 7 7 5 6 7 6 8 9 10 10 11 12 12 12 12 12 12 14 14 14 14 14 14 13 14 14 13 11 9 8 8 8 8 8
3 3 8 5 1 3 2 7 3 4 6 5 4 7 8 10 9 9 11 13 12 12 12 12 12 11 13 14 14 14 14 14 14 13 13 13 12 10 9 8 8 8 8 7
4 2 8 4 5 6 8 3 2 4 5 6 7 8 8 9 10 11 12 12 11 11 13 12 11 11 13 14 14 13 13 13 13 12 11 10 9 8 8 8 7 7 6 7
9 8 6 5 7 5 5 4 3 4 5 5 6 7 7 8 9 11 12 11 11 12 14 13 11 11 14 15 14 13 13 13 12 12 10 9 8 8 6 6 5 5 5 6
3 6 5 5 4 3 5 5 4 4 5 4 6 7 9 9 9 11 10 12 11 13 14 14 13 13 13 14 13 13 13 12 11 10 9 8 6 6 5 4 5 5 6 6
4 5 3 6 7 5 4 4 4 4 4 5 6 8 8 8 10 10 11 10 11 12 14 15 15 15 14 13 13 13 12 11 10 9 9 7 6 5 5 5 5 5 5 5
9 9 8 8 7 7 5 5 6 5 4 4 5 7 8 8 8 10 11 12 12 13 14 15 15 15 14 12 12 12 10 9 7 7 7 6 6 6 5 5 6 7 6 4
6 4 6 3 4 6 6 6 5 5 5 5 5 6 6 7 7 9 11 12 12 13 15 15 15 14 13 12 12 11 10 9 7 6 6 6 5 5 5 3 3 2 1 3
5 6 4 5 6 7 5 3 3 3 4 5 5 6 7 7 9 11 12 12 12 13 14 14 14 14 13 13 12 11 9 9 8 6 5 5 5 4 3 3 2 3 5 5
7 7 6 5 5 4 4 2 3 4 5 6 5 6 7 8 10 11 12 12 12 13 13 14 15 15 14 13 12 10 7 6 5 5 5 4 4 3 3 3 2 2 3 4
8 4 4 5 7 6 4 4 5 6 5 5 6 7 8 8 9 10 10 10 12 13 14 14 15 15 15 13 11 8 6 9 7 4 5 5 4 3 3 2 2 2 2 2
10 8 7 7 8 7 6 6 6 6 6 6 7 7 7 8 9 11 11 11 10 11 11 12 15 16 15 12 10 7 5 6 8 5 4 4 4 3 3 2 2 2 2 2
11 11 10 8 8 8 7 6 6 6 6 6 6 6 6 7 9 11 12 13 13 11 10 13 16 17 15 13 9 6 5 4 3 3 3 4 4 3 2 2 2 2 2 2
7 8 9 8 8 7 6 6 6 6 5 5 4 5 6 7 8 9 10 11 11 14 16 17 21 16 15 15 14 5 5 4 3 3 2 4 4 4 3 3 2 2 2 2
7 7 8 7 7 6 6 6 5 5 5 3 4 5 6 7 7 8 9 7 6 8 13 16 15 13 14 14 15 6 5 4 3 3 2 2 3 3 3 3 2 2 2 2
9 8 9 8 7 7 6 6 5 5 4 3 4 5 6 7 7 7 8 8 8 10 13 14 11 12 13 14 13 7 6 5 4 2 2 1 2 2 2 2 2 2 2 1
9 9 9 8 7 6 5 5 5 5 4 3 4 4 5 6 7 7 6 5 9 13 11 9 10 15 18 15 8 8 7 7 5 3 2 1 1 1 2 2 2 2 2 2
8 8 8 8 8 6 4 4 5 4 4 4 3 4 4 5 4 5 7 7 8 13 10 8 15 20 20 10 9 8 8 8 7 5 3 1 1 0 0 1 1 1 2 2
7 8 8 7 5 4 5 6 5 3 3 2 2 2 3 4 4 3 5 9 11 12 9 10 15 18 14 8 9 9 8 8 8 7 6 4 1 0 1 1 1 1 1 1
8 8 8 8 8 8 8 6 4 4 3 2 2 2 1 2 3 5 6 8 11 11 9 10 13 15 10 9 9 9 8 8 9 8 7 5 4 2 0 1 1 1 1 1
9 10 10 11 10 7 6 6 5 4 4 3 2 1 2 2 4 4 5 7 10 10 9 8 9 10 9 9 9 9 9 9 9 8 9 7 6 5 3 1 1 1 1 1
7 6 6 5 5 5 6 6 6 6 5 4 3 1 1 2 3 4 6 6 7 7 7 8 8 8 9 9 9 9 8 8 8 8 8 8 7 6 5 4 1 0 1 1
Wind_Direction
49 52 100 90 66 59 92 169 208 256 262 257 265 280 283 286 291 298 298 295 293 292 291 291 292 292 292 293 294 295 295 292 288 285 281 276 269 258 246 234 231 228 227 229
55 60 86 76 39 48 97 244 250 271 274 251 277 291 286 286 290 295 297 299 300 298 298 299 298 299 298 296 294 293 292 291 290 289 287 282 276 268 257 244 234 225 223 225
197 234 344 270 229 230 243 235 222 241 255 289 298 291 282 286 297 299 301 303 301 301 299 299 300 300 299 293 294 292 290 290 290 289 288 286 284 278 264 251 239 228 224 221
117 63 261 253 233 216 233 242 219 234 259 277 272 276 277 278 283 289 294 296 299 300 300 297 296 298 297 298 297 295 293 290 289 288 287 285 283 280 273 261 246 237 229 221
109 206 285 265 220 188 229 269 221 237 265 276 294 317 292 273 278 284 293 298 300 301 301 298 299 301 302 303 301 300 299 296 293 289 287 284 280 276 272 264 254 242 233 222
123 178 250 247 207 137 142 285 230 231 267 285 322 326 287 293 309 304 302 300 300 299 300 301 302 304 306 307 306 304 303 300 296 288 283 281 277 273 269 261 254 248 240 225
154 223 261 239 164 97 193 264 223 229 261 275 252 240 271 301 301 294 294 298 300 302 305 304 305 307 307 308 306 306 305 302 298 291 285 281 276 269 263 257 250 241 239 235
154 211 263 200 146 187 221 235 240 251 261 264 263 273 286 294 295 300 303 303 305 306 309 309 309 310 310 308 307 307 306 303 301 298 293 292 282 273 264 253 243 238 235 240
187 212 240 201 202 212 181 207 241 249 266 275 280 285 291 291 294 299 302 306 309 310 311 312 313 312 310 309 310 310 308 305 304 304 301 293 285 280 270 254 239 230 228 236
236 258 239 232 232 213 192 212 242 258 276 277 276 282 288 289 294 302 304 311 312 315 315 315 316 315 309 309 311 311 310 309 308 309 307 301 289 280 270 254 241 230 226 230
243 263 255 256 234 218 213 233 264 277 271 266 271 279 281 289 299 305 309 310 311 315 316 315 317 315 313 313 315 315 314 312 312 309 308 307 300 286 273 256 244 230 225 218
218 212 192 231 222 195 205 233 247 256 267 268 264 272 285 292 297 304 309 312 315 317 318 317 317 315 315 317 319 318 318 318 314 314 315 315 315 313 290 270 263 239 235 230
207 183 180 218 185 182 200 227 239 242 254 273 280 280 288 292 294 303 309 315 318 319 318 316 316 317 320 322 322 320 318 317 314 318 322 325 325 325 328 349 32 45 256 236
172 134 155 191 196 200 206 222 238 264 275 276 277 286 293 292 299 310 314 317 317 317 317 317 319 322 324 323 322 321 320 319 322 321 323 325 326 329 332 348 23 46 42 50
185 179 187 194 189 191 200 214 243 275 282 287 283 289 297 303 309 312 312 315 319 321 323 325 326 326 326 323 323 323 320 319 320 326 330 330 336 347 3 22 43 55 59 56
178 178 172 174 190 205 211 223 240 261 272 278 286 292 298 301 303 306 309 316 325 326 324 325 326 325 324 324 325 322 318 326 339 339 342 346 352 1 14 33 48 58 63 65
153 183 194 204 211 213 214 219 226 245 263 274 281 293 305 313 317 322 325 327 323 315 316 324 327 326 326 328 326 321 318 324 341 349 350 350 354 3 10 26 43 57 55 51
183 184 178 183 191 205 217 224 232 245 255 263 286 302 310 315 316 319 323 326 327 327 333 336 333 330 330 331 329 321 319 321 327 336 348 355 357 6 21 40 60 71 71 71
180 176 181 187 183 184 198 216 229 241 258 270 286 296 298 300 302 309 317 325 333 338 339 336 331 332 334 335 337 326 328 330 331 337 353 5 15 22 32 45 59 68 72 75
181 177 178 182 180 182 197 213 225 242 256 259 279 296 306 310 314 317 321 316 317 325 326 327 330 335 336 334 337 334 337 336 339 341 355 18 23 25 35 48 59 62 69 72
183 176 176 182 191 199 204 206 212 235 253 256 267 286 297 305 315 321 325 328 332 335 333 330 338 340 337 332 333 343 346 343 342 343 350 15 32 33 36 44 50 49 50 52
182 178 181 183 190 206 213 209 213 229 243 256 273 292 306 313 320 319 307 306 322 331 334 336 342 340 337 335 343 351 354 352 349 348 347 350 19 46 50 55 52 43 42 50
181 177 178 184 193 204 211 215 219 223 231 243 268 291 300 304 310 321 327 325 329 332 334 337 338 339 341 346 351 354 358 358 352 349 348 335 276 209 124 89 75 60 47 51
177 177 179 177 166 184 216 224 217 218 222 234 258 282 298 313 314 304 304 316 328 332 335 335 337 342 346 353 355 357 359 359 354 348 349 353 348 231 193 176 143 119 107 101
179 175 168 168 185 209 216 206 194 198 199 220 254 297 316 299 298 313 321 328 335 338 339 340 343 347 354 357 358 359 359 360 356 352 352 353 355 351 273 206 191 172 158 147
183 186 189 195 201 200 184 173 179 185 183 202 230 273 316 319 319 323 330 337 342 342 344 347 351 353 357 357 358 0 360 358 358 359 358 356 353 355 352 339 198 189 188 185
201 197 196 204 204 189 175 173 178 182 181 184 197 222 306 323 332 340 346 349 349 350 350 351 354 356 357 359 359 2 3 1 0 359 357 357 356 355 353 354 10 122 169 179